Pellston, MI

4:06 PM EDT on May 23, 2017 (GMT -0400)
Pellston Regional Airport Of Emmet County

Weather History for KPLN - January, 2014

Change the Weather History Date:

Saturday, January 4, 2014

  Actual Average Record
Temperature  
Mean Temperature 24 °F -  
Max Temperature 30 °F 27 °F 48 °F (2007)
Min Temperature 18 °F 12 °F -35 °F (1981)
Degree Days  
Heating Degree Days 41    
Moisture  
Dew Point 17 °F    
Average Humidity 74    
Maximum Humidity 88    
Minimum Humidity 57    
Precipitation  
Precipitation 0.01 in - - ()
Sea Level Pressure  
Sea Level Pressure 29.77 in    
Wind  
Wind Speed 13 mph (WSW)    
Max Wind Speed 20 mph    
Max Gust Speed 31 mph    
Visibility 7 miles    
Events Snow    
Averages and records for this station are not official NWS values.
T = Trace of Precipitation, MM = Missing Value Source: NWS Daily Summary

Daily Weather History Graph

Daily Weather History Graph

Search for Another Location

Airport or City:

Trip Planner

Search our weather history database for the weather conditions in past years. The results will help you decide how hot, cold, wet, or windy it might be!

Date:

Astronomy

Jan. 04, 2014 Rise Set
Actual Time 8:19 AM EST 5:09 PM EST
Civil Twilight 7:45 AM EST 5:43 PM EST
Nautical Twilight 7:08 AM EST 6:20 PM EST
Astronomical Twilight 6:32 AM EST 6:56 PM EST
Moon 10:12 AM EST (1/4) 9:41 PM EST (1/4)
Length of Visible Light 9h 57m
Length of Day
8h 49m
Waxing Crescent, 15% of the Moon is Illuminated
Jan 4
Waxing Crescent
Jan 7
First Quarter
Jan 15
Full
Jan 24
Last Quarter
Jan 30
New

Hourly Weather History & Observations

Time (EST) Temp. Windchill Dew Point Humidity Pressure Visibility Wind Dir Wind Speed Gust Speed Precip Events Conditions
12:42 AM 18.0 °F 4.2 °F 5.0 °F 57% 29.75 in 10.0 mi SSW 13.8 mph 24.2 mph N/A   Overcast
12:54 AM 18.0 °F 4.8 °F 5.0 °F 57% 29.79 in 10.0 mi SSW 12.7 mph 26.5 mph N/A   Overcast
1:54 AM 19.0 °F 4.0 °F 8.1 °F 62% 29.75 in 9.0 mi SSW 17.3 mph 28.8 mph N/A   Overcast
2:54 AM 19.9 °F 6.7 °F 10.0 °F 65% 29.74 in 10.0 mi South 13.8 mph 29.9 mph N/A   Overcast
3:54 AM 21.0 °F 8.6 °F 12.0 °F 68% 29.73 in 10.0 mi South 12.7 mph - N/A   Overcast
4:54 AM 21.9 °F 8.7 °F 14.0 °F 72% 29.70 in 10.0 mi South 15.0 mph 21.9 mph N/A   Overcast
5:54 AM 23.0 °F 10.1 °F 15.1 °F 72% 29.68 in 10.0 mi South 15.0 mph 28.8 mph N/A   Overcast
6:54 AM 24.1 °F 11.5 °F 16.0 °F 71% 29.66 in 10.0 mi South 15.0 mph 24.2 mph N/A   Overcast
7:15 AM 24.1 °F 12.5 °F 17.1 °F 75% 29.62 in 1.8 mi South 12.7 mph 23.0 mph 0.00 in Snow Light Snow
7:54 AM 23.0 °F 13.1 °F 19.9 °F 88% 29.66 in 1.2 mi South 9.2 mph - 0.00 in Snow Light Snow
8:48 AM 24.8 °F 16.1 °F 19.4 °F 80% 29.62 in 3.0 mi South 8.1 mph - 0.01 in Snow Light Snow
8:54 AM 25.0 °F 16.3 °F 21.0 °F 85% 29.66 in 6.0 mi South 8.1 mph - 0.01 in   Overcast
9:54 AM 27.0 °F 16.1 °F 21.9 °F 81% 29.67 in 8.0 mi SSW 12.7 mph 20.7 mph N/A   Overcast
10:17 AM 28.0 °F 19.3 °F 23.0 °F 81% 29.64 in 1.8 mi SSW 9.2 mph - 0.00 in Snow Light Snow
10:27 AM 28.0 °F 18.6 °F 23.0 °F 81% 29.64 in 3.0 mi SSW 10.4 mph 19.6 mph 0.00 in Snow Light Snow
10:54 AM 28.9 °F 19.2 °F 24.1 °F 82% 29.68 in 5.0 mi SW 11.5 mph 23.0 mph 0.00 in   Overcast
11:30 AM 28.9 °F 19.2 °F 25.0 °F 85% 29.64 in 1.8 mi SW 11.5 mph 18.4 mph 0.00 in Snow Light Snow
11:44 AM 30.0 °F 21.1 °F 25.0 °F 82% 29.63 in 3.0 mi WSW 10.4 mph 17.3 mph 0.00 in Snow Light Snow
11:54 AM 30.9 °F 18.7 °F 25.0 °F 79% 29.67 in 4.0 mi WSW 19.6 mph 26.5 mph 0.00 in   Haze
12:13 PM 30.9 °F 20.2 °F 25.0 °F 79% 29.63 in 4.0 mi WSW 15.0 mph 31.1 mph 0.00 in Snow Light Snow
12:54 PM 30.9 °F 18.7 °F 25.0 °F 79% 29.67 in 5.0 mi WSW 19.6 mph 29.9 mph 0.00 in   Haze
1:54 PM 30.0 °F 18.3 °F 23.0 °F 75% 29.70 in 8.0 mi West 17.3 mph 23.0 mph N/A   Overcast
2:54 PM 28.9 °F 17.7 °F 21.9 °F 75% 29.75 in 9.0 mi West 15.0 mph - N/A   Overcast
3:54 PM 27.0 °F 16.1 °F 21.9 °F 81% 29.79 in 9.0 mi WNW 12.7 mph - N/A   Overcast
4:54 PM 27.0 °F 16.1 °F 19.9 °F 75% 29.84 in 10.0 mi WNW 12.7 mph - N/A   Overcast
5:54 PM 25.0 °F 12.2 °F 18.0 °F 75% 29.89 in 10.0 mi NW 16.1 mph - N/A   Overcast
6:54 PM 21.9 °F 10.4 °F 15.1 °F 75% 29.95 in 10.0 mi NW 11.5 mph - N/A   Overcast
7:54 PM 21.0 °F 9.3 °F 12.0 °F 68% 29.98 in 10.0 mi NNW 11.5 mph - N/A   Overcast
8:54 PM 19.9 °F 8.6 °F 12.0 °F 71% 30.01 in 10.0 mi NW 10.4 mph - N/A   Overcast
9:17 PM 19.9 °F 7.3 °F 10.9 °F 68% 29.98 in 10.0 mi NW 12.7 mph - N/A   Overcast
9:54 PM 19.9 °F 9.3 °F 10.9 °F 68% 30.03 in 10.0 mi NW 9.2 mph - N/A   Overcast
10:13 PM 19.9 °F 9.3 °F 10.0 °F 65% 29.99 in 10.0 mi NW 9.2 mph - N/A   Overcast
10:54 PM 19.0 °F 7.5 °F 10.0 °F 68% 30.04 in 10.0 mi NW 10.4 mph - N/A   Overcast
11:54 PM 19.0 °F 7.5 °F 10.0 °F 68% 30.04 in 10.0 mi NNW 10.4 mph - N/A   Overcast